{"data":{"norad_id":48131,"epoch":"2026-09-20T05:02:34.394784Z","epoch_age_seconds":54193,"freshness":"FRESH","line1":"1 48131U 21027AR  26263.21012031  .00000709  00000+0  34597-4 0  9995","line2":"2 48131  53.1589 327.5863 0001102  91.2609 268.8519 15.31704965302482","mean_motion":15.31704965,"eccentricity":0.0001102,"inclination_deg":53.1589,"raan_deg":327.5863,"arg_perigee_deg":91.2609,"mean_anomaly_deg":268.8519,"bstar":3.4597e-5,"rev_number":30248,"period_min":94.012883218669,"perigee_km":469.97045024511,"apogee_km":471.47993947286,"semimajor_km":6848.862194859,"source":"CELESTRAK","updated_at":"2026-09-20T09:00:38.767561Z"}}